{"data":{"norad_id":52867,"intl_designator":"2022-062AP","name":"STARLINK-4126","alt_names":[],"object_type":"PAYLOAD","status":"ACTIVE","operator":null,"country":"US","launch_date":"2022-06-17","launch_site_code":"AFETR","launch_vehicle":null,"mission":null,"orbit_class":"UNKNOWN","rcs_meters":null,"size_class":null,"mass_kg":null,"dimensions":null,"purposes":["comms"],"wikipedia_slug":null,"has_3d_model":false,"image_url":null,"decayed_at":null,"tle_current":{"epoch":"2026-09-20T03:27:38.994912Z","epoch_age_seconds":99615,"freshness":"FRESH","line1":"1 52867U 22062AP  26263.14420133  .00000029  00000+0  11986-4 0  9996","line2":"2 52867  53.1594 215.2506 0001400  88.2371 271.8792 15.34389939235507","mean_motion":15.34389939,"eccentricity":0.00014,"inclination_deg":53.1594,"raan_deg":215.2506,"arg_perigee_deg":88.2371,"mean_anomaly_deg":271.8792,"bstar":1.1986e-5,"rev_number":23550,"period_min":93.848373441401,"perigee_km":461.77542196263,"apogee_km":463.69086560289,"semimajor_km":6840.8701437828,"source":"CELESTRAK","updated_at":"2026-09-20T09:00:40.135659Z"}}}